| time (UTC) | temp F | wind direction | speed knots | gust knots | rain 1hr in | rain 24hr in | rain mn in | humidity % | barometer mb |
| 20260510054904 | 54 | 274 | 0.0 | 0.0 | 0.00 | 0.69 | 0.10 | 94 | 1006.9 |
| 20260510054404 | 54 | 274 | 0.0 | 0.0 | 0.00 | 0.69 | 0.10 | 94 | 1006.3 |
| 20260510053904 | 54 | 234 | 0.0 | 0.0 | 0.01 | 0.70 | 0.10 | 94 | 1006.3 |
| 20260510053404 | 54 | 234 | 0.0 | 0.0 | 0.01 | 0.71 | 0.10 | 94 | 1006.3 |
| 20260510052905 | 54 | 234 | 0.0 | 0.0 | 0.03 | 0.72 | 0.10 | 94 | 1006.3 |
| 20260510052405 | 54 | 234 | 0.0 | 0.0 | 0.04 | 0.73 | 0.10 | 94 | 1006.2 |
| 20260510051905 | 54 | 234 | 0.0 | 0.0 | 0.06 | 0.73 | 0.10 | 94 | 1006.1 |
| 20260510050905 | 54 | 202 | 0.0 | 0.0 | 0.09 | 0.74 | 0.10 | 93 | 1006.1 |
| 20260510050405 | 54 | 202 | 0.0 | 0.0 | 0.10 | 0.75 | 0.10 | 93 | 1006.2 |
| 20260510045905 | 55 | 202 | 0.0 | 0.0 | 0.10 | 0.75 | 0.10 | 93 | 1006.2 |
| 20260510045405 | 55 | 202 | 0.0 | 0.0 | 0.10 | 0.75 | 0.10 | 93 | 1006.3 |
| 20260510044405 | 55 | 202 | 0.0 | 0.0 | 0.10 | 0.75 | 0.10 | 93 | 1006.2 |
| 20260510043905 | 55 | 202 | 0.0 | 0.0 | 0.09 | 0.75 | 0.09 | 93 | 1006.3 |
| 20260510041905 | 55 | 218 | 1.7 | 10.4 | 0.04 | 0.71 | 0.04 | 93 | 1007.0 |
| 20260510041405 | 55 | 190 | 1.7 | 5.2 | 0.03 | 0.70 | 0.03 | 93 | 1006.8 |
| 20260510040905 | 55 | 259 | 0.0 | 0.0 | 0.02 | 0.68 | 0.01 | 93 | 1007.0 |
| 20260510040405 | 55 | 261 | 0.0 | 0.0 | 0.03 | 0.67 | 0.00 | 93 | 1007.2 |
| 20260510035905 | 55 | 261 | 0.0 | 0.0 | 0.04 | 0.68 | 0.68 | 93 | 1006.9 |
| 20260510035405 | 55 | 261 | 0.0 | 0.0 | 0.04 | 0.68 | 0.68 | 93 | 1006.7 |
| 20260510034905 | 55 | 261 | 0.0 | 0.0 | 0.04 | 0.68 | 0.68 | 93 | 1006.5 |
| 20260510034405 | 55 | 259 | 0.0 | 0.0 | 0.04 | 0.69 | 0.68 | 93 | 1006.6 |
| 20260510033905 | 55 | 259 | 0.0 | 0.0 | 0.04 | 0.70 | 0.68 | 93 | 1006.7 |
| 20260510033405 | 55 | 259 | 0.0 | 0.0 | 0.04 | 0.71 | 0.68 | 93 | 1006.5 |
| 20260510032905 | 55 | 259 | 0.0 | 0.0 | 0.04 | 0.71 | 0.68 | 93 | 1006.3 |
| 20260510032405 | 55 | 259 | 0.0 | 0.0 | 0.04 | 0.72 | 0.68 | 92 | 1006.2 |
| 20260510031405 | 55 | 269 | 0.9 | 2.6 | 0.04 | 0.72 | 0.68 | 93 | 1006.4 |
| 20260510030905 | 55 | 272 | 0.0 | 0.0 | 0.04 | 0.73 | 0.68 | 93 | 1006.7 |
| 20260510030405 | 55 | 263 | 6.1 | 10.4 | 0.01 | 0.70 | 0.65 | 94 | 1007.4 |
| 20260510025905 | 55 | 259 | 0.9 | 4.3 | 0.00 | 0.69 | 0.64 | 94 | 1007.2 |
| 20260510025408 | 55 | 254 | 0.0 | 0.0 | 0.00 | 0.70 | 0.64 | 94 | 1006.3 |
| 20260510024905 | 55 | 254 | 0.0 | 0.0 | 0.00 | 0.70 | 0.64 | 94 | 1006.1 |
| 20260510023406 | 54 | 254 | 0.0 | 0.0 | 0.00 | 0.71 | 0.64 | 93 | 1006.1 |
| 20260510022905 | 54 | 254 | 0.0 | 0.0 | 0.00 | 0.72 | 0.64 | 93 | 1006.1 |
| 20260510022405 | 54 | 254 | 0.0 | 0.0 | 0.00 | 0.72 | 0.64 | 93 | 1005.9 |
| 20260510021905 | 54 | 254 | 0.0 | 0.0 | 0.00 | 0.72 | 0.64 | 93 | 1005.9 |
| 20260510021405 | 54 | 254 | 0.0 | 0.0 | 0.00 | 0.72 | 0.64 | 93 | 1005.9 |
| 20260510020905 | 55 | 254 | 0.0 | 0.0 | 0.00 | 0.72 | 0.64 | 93 | 1005.9 |
| 20260510020405 | 55 | 254 | 0.0 | 0.0 | 0.00 | 0.72 | 0.64 | 93 | 1006.1 |
| 20260510015905 | 55 | 254 | 0.0 | 0.0 | 0.00 | 0.73 | 0.64 | 93 | 1006.2 |
| 20260510015405 | 55 | 254 | 0.0 | 0.0 | 0.00 | 0.73 | 0.64 | 93 | 1006.1 |
| 20260510014905 | 55 | 254 | 0.0 | 0.0 | 0.00 | 0.73 | 0.64 | 93 | 1006.1 |
| 20260510014405 | 55 | 254 | 0.0 | 0.0 | 0.00 | 0.74 | 0.64 | 93 | 1006.1 |
| 20260510013905 | 55 | 254 | 0.0 | 0.0 | 0.00 | 0.75 | 0.64 | 92 | 1006.0 |
| 20260510013404 | 55 | 254 | 0.0 | 0.0 | 0.00 | 0.75 | 0.64 | 92 | 1006.0 |
| 20260510012905 | 55 | 254 | 0.0 | 0.0 | 0.02 | 0.76 | 0.64 | 92 | 1006.0 |
| 20260510012405 | 55 | 254 | 0.0 | 0.0 | 0.04 | 0.76 | 0.64 | 92 | 1006.1 |
| 20260510010905 | 55 | 255 | 0.0 | 0.0 | 0.08 | 0.78 | 0.64 | 91 | 1005.8 |
| 20260510010406 | 55 | 255 | 0.0 | 0.0 | 0.09 | 0.78 | 0.64 | 91 | 1005.7 |
| 20260510005905 | 55 | 255 | 0.0 | 0.0 | 0.11 | 0.79 | 0.64 | 91 | 1005.6 |
| 20260510004405 | 55 | 255 | 0.0 | 0.0 | 0.34 | 0.80 | 0.64 | 91 | 1005.6 |
| 20260510003905 | 55 | 255 | 0.0 | 0.0 | 0.34 | 0.80 | 0.64 | 90 | 1005.5 |
| 20260510003405 | 55 | 231 | 0.0 | 5.2 | 0.35 | 0.81 | 0.64 | 91 | 1005.5 |
| 20260510002905 | 55 | 211 | 2.6 | 12.2 | 0.33 | 0.80 | 0.62 | 91 | 1006.0 |
| 20260510002405 | 55 | 276 | 0.0 | 0.9 | 0.31 | 0.78 | 0.60 | 91 | 1006.1 |
| 20260510001905 | 55 | 275 | 0.0 | 0.0 | 0.29 | 0.76 | 0.58 | 91 | 1006.1 |
| 20260510001405 | 55 | 276 | 0.0 | 0.0 | 0.27 | 0.74 | 0.56 | 90 | 1006.1 |
| 20260510000905 | 55 | 276 | 0.0 | 0.0 | 0.27 | 0.75 | 0.56 | 90 | 1005.9 |
| 20260510000404 | 55 | 276 | 0.0 | 0.0 | 0.26 | 0.74 | 0.55 | 88 | 1006.0 |
| 20260509235405 | 56 | 263 | 6.1 | 10.4 | 0.14 | 0.62 | 0.43 | 84 | 1006.3 |
| 20260509234905 | 58 | 274 | 1.7 | 11.3 | 0.03 | 0.51 | 0.32 | 80 | 1005.6 |
| 20260509234405 | 61 | 259 | 5.2 | 10.4 | 0.01 | 0.49 | 0.30 | 72 | 1005.3 |
| 20260509233904 | 64 | 42 | 0.0 | 10.4 | 0.01 | 0.49 | 0.30 | 65 | 1004.6 |
| 20260509233405 | 66 | 277 | 0.9 | 5.2 | 0.00 | 0.48 | 0.29 | 60 | 1004.1 |
| 20260509232905 | 66 | 284 | 0.0 | 4.3 | 0.00 | 0.48 | 0.29 | 60 | 1002.8 |
| 20260509232405 | 67 | 209 | 0.0 | 4.3 | 0.00 | 0.48 | 0.29 | 57 | 1002.7 |
| 20260509231905 | 67 | 200 | 0.9 | 7.0 | 0.00 | 0.48 | 0.29 | 58 | 1002.9 |
| 20260509230905 | 67 | 249 | 0.0 | 5.2 | 0.00 | 0.49 | 0.29 | 56 | 1003.0 |
| 20260509230405 | 67 | 220 | 0.0 | 4.3 | 0.00 | 0.49 | 0.29 | 56 | 1003.0 |
| 20260509225905 | 68 | 200 | 0.0 | 0.0 | 0.00 | 0.49 | 0.29 | 56 | 1002.9 |
| 20260509225405 | 68 | 241 | 0.0 | 7.0 | 0.00 | 0.49 | 0.29 | 55 | 1002.6 |
| 20260509224905 | 68 | 272 | 1.7 | 13.9 | 0.00 | 0.50 | 0.29 | 56 | 1002.6 |
| 20260509224405 | 68 | 265 | 1.7 | 7.8 | 0.00 | 0.50 | 0.29 | 55 | 1002.6 |
| 20260509223904 | 69 | 266 | 0.9 | 11.3 | 0.00 | 0.50 | 0.29 | 54 | 1002.6 |
| 20260509223405 | 70 | 193 | 2.6 | 14.8 | 0.00 | 0.50 | 0.29 | 54 | 1002.5 |
| 20260509222905 | 70 | 204 | 1.7 | 10.4 | 0.00 | 0.50 | 0.29 | 52 | 1002.5 |
| 20260509222404 | 70 | 262 | 1.7 | 7.8 | 0.00 | 0.50 | 0.29 | 52 | 1002.5 |
| 20260509221905 | 70 | 256 | 6.1 | 14.8 | 0.00 | 0.50 | 0.29 | 51 | 1002.6 |
| 20260509221405 | 70 | 244 | 1.7 | 15.6 | 0.00 | 0.51 | 0.29 | 54 | 1002.6 |
| 20260509220905 | 70 | 230 | 0.9 | 15.6 | 0.00 | 0.51 | 0.29 | 54 | 1002.4 |
| 20260509215905 | 70 | 220 | 1.7 | 7.0 | 0.00 | 0.51 | 0.29 | 55 | 1002.2 |
| 20260509215406 | 70 | 175 | 0.9 | 7.0 | 0.00 | 0.51 | 0.29 | 56 | 1002.3 |
| 20260509214405 | 70 | 238 | 6.1 | 21.7 | 0.00 | 0.52 | 0.29 | 52 | 1002.4 |
| 20260509213905 | 70 | 239 | 5.2 | 13.9 | 0.00 | 0.52 | 0.29 | 53 | 1002.5 |
| 20260509212405 | 70 | 223 | 0.9 | 7.8 | 0.00 | 0.53 | 0.29 | 54 | 1002.7 |
| 20260509211904 | 70 | 243 | 4.3 | 13.9 | 0.00 | 0.53 | 0.29 | 55 | 1002.8 |
| 20260509211405 | 70 | 175 | 7.0 | 20.0 | 0.00 | 0.54 | 0.29 | 55 | 1002.7 |
| 20260509205905 | 70 | 230 | 0.9 | 15.6 | 0.00 | 0.55 | 0.29 | 54 | 1002.9 |
| 20260509204905 | 70 | 269 | 5.2 | 13.9 | 0.00 | 0.55 | 0.29 | 53 | 1003.0 |
| 20260509204405 | 71 | 259 | 4.3 | 15.6 | 0.00 | 0.55 | 0.29 | 55 | 1003.0 |
| 20260509203905 | 70 | 260 | 0.0 | 10.4 | 0.00 | 0.55 | 0.29 | 58 | 1003.0 |
| 20260509202405 | 69 | 183 | 5.2 | 15.6 | 0.00 | 0.55 | 0.29 | 55 | 1003.4 |
| 20260509201905 | 70 | 238 | 3.5 | 14.8 | 0.00 | 0.55 | 0.29 | 56 | 1003.3 |
| 20260509201405 | 69 | 231 | 5.2 | 18.2 | 0.00 | 0.55 | 0.29 | 55 | 1003.4 |
| 20260509200905 | 69 | 237 | 1.7 | 12.2 | 0.00 | 0.55 | 0.29 | 56 | 1003.6 |
| 20260509200405 | 68 | 258 | 1.7 | 5.2 | 0.00 | 0.55 | 0.29 | 60 | 1003.5 |
| 20260509195405 | 68 | 180 | 4.3 | 18.2 | 0.00 | 0.55 | 0.29 | 60 | 1003.8 |
| 20260509194904 | 68 | 277 | 2.6 | 7.0 | 0.00 | 0.55 | 0.29 | 57 | 1004.0 |
| 20260509194405 | 68 | 262 | 4.3 | 19.1 | 0.00 | 0.55 | 0.29 | 57 | 1004.1 |
| 20260509193905 | 68 | 218 | 5.2 | 13.9 | 0.00 | 0.55 | 0.29 | 58 | 1004.2 |
| 20260509193405 | 68 | 205 | 4.3 | 12.2 | 0.00 | 0.55 | 0.29 | 58 | 1004.2 |
| 20260509192405 | 68 | 254 | 5.2 | 13.9 | 0.00 | 0.55 | 0.29 | 57 | 1004.4 |
| 20260509191905 | 67 | 255 | 3.5 | 19.1 | 0.00 | 0.55 | 0.29 | 60 | 1004.4 |
| 20260509191404 | 67 | 227 | 3.5 | 11.3 | 0.00 | 0.55 | 0.29 | 57 | 1004.5 |
| 20260509190905 | 68 | 261 | 6.1 | 14.8 | 0.00 | 0.55 | 0.29 | 57 | 1004.5 |
| 20260509190405 | 68 | 242 | 4.3 | 13.9 | 0.00 | 0.55 | 0.29 | 56 | 1004.5 |
| 20260509185905 | 68 | 255 | 5.2 | 15.6 | 0.00 | 0.55 | 0.29 | 57 | 1004.7 |
| 20260509185405 | 68 | 233 | 8.7 | 18.2 | 0.00 | 0.55 | 0.29 | 59 | 1004.7 |
| 20260509184905 | 67 | 191 | 1.7 | 13.9 | 0.00 | 0.55 | 0.29 | 62 | 1004.6 |
| 20260509184405 | 67 | 232 | 0.9 | 11.3 | 0.00 | 0.55 | 0.29 | 62 | 1004.7 |
| 20260509183905 | 68 | 254 | 1.7 | 7.8 | 0.00 | 0.55 | 0.29 | 57 | 1004.7 |
| 20260509183405 | 68 | 220 | 3.5 | 10.4 | 0.00 | 0.55 | 0.29 | 60 | 1004.6 |
| 20260509182905 | 68 | 232 | 1.7 | 7.8 | 0.00 | 0.55 | 0.29 | 60 | 1004.7 |
| 20260509182405 | 67 | 252 | 4.3 | 15.6 | 0.00 | 0.55 | 0.29 | 63 | 1004.8 |
| 20260509181904 | 66 | 158 | 0.9 | 7.8 | 0.00 | 0.55 | 0.29 | 64 | 1004.9 |
| 20260509180905 | 66 | 282 | 2.6 | 10.4 | 0.00 | 0.55 | 0.29 | 65 | 1004.9 |
| 20260509180405 | 67 | 180 | 2.6 | 10.4 | 0.00 | 0.55 | 0.29 | 63 | 1004.9 |
| 20260509175905 | 67 | 211 | 5.2 | 15.6 | 0.00 | 0.55 | 0.29 | 64 | 1004.9 |
| 20260509175405 | 66 | 260 | 4.3 | 19.1 | 0.00 | 0.56 | 0.29 | 67 | 1004.8 |
| 20260509174905 | 66 | 262 | 7.0 | 15.6 | 0.00 | 0.56 | 0.29 | 63 | 1004.8 |
| 20260509173904 | 66 | 238 | 2.6 | 13.9 | 0.00 | 0.57 | 0.29 | 64 | 1004.9 |
| 20260509173405 | 67 | 216 | 2.6 | 13.9 | 0.00 | 0.57 | 0.29 | 65 | 1004.8 |
| 20260509172405 | 65 | 279 | 2.6 | 7.8 | 0.00 | 0.57 | 0.29 | 68 | 1005.0 |
| 20260509171905 | 64 | 254 | 2.6 | 10.4 | 0.00 | 0.57 | 0.29 | 69 | 1004.9 |
| 20260509171404 | 64 | 263 | 4.3 | 10.4 | 0.00 | 0.57 | 0.29 | 66 | 1005.0 |
| 20260509170904 | 64 | 272 | 2.6 | 15.6 | 0.00 | 0.57 | 0.29 | 68 | 1005.1 |
| 20260509170405 | 63 | 260 | 5.2 | 13.9 | 0.00 | 0.57 | 0.29 | 69 | 1005.2 |
| 20260509165905 | 63 | 225 | 0.0 | 5.2 | 0.00 | 0.57 | 0.29 | 74 | 1005.2 |
| 20260509165405 | 62 | 192 | 0.0 | 7.8 | 0.00 | 0.57 | 0.29 | 76 | 1005.3 |
| 20260509164905 | 62 | 223 | 0.0 | 7.0 | 0.00 | 0.57 | 0.29 | 77 | 1005.4 |
| 20260509164405 | 62 | 181 | 1.7 | 7.8 | 0.00 | 0.57 | 0.29 | 76 | 1005.4 |
| 20260509163904 | 62 | 243 | 3.5 | 7.0 | 0.00 | 0.57 | 0.29 | 75 | 1005.5 |
| 20260509163404 | 61 | 226 | 1.7 | 10.4 | 0.00 | 0.57 | 0.29 | 79 | 1005.7 |
| 20260509162405 | 61 | 242 | 1.7 | 7.8 | 0.00 | 0.57 | 0.29 | 80 | 1005.7 |
| 20260509161905 | 61 | 223 | 0.0 | 14.8 | 0.00 | 0.57 | 0.29 | 81 | 1005.7 |
| 20260509161404 | 59 | 204 | 0.0 | 5.2 | 0.00 | 0.57 | 0.29 | 85 | 1005.8 |
| 20260509160904 | 59 | 262 | 0.0 | 7.0 | 0.00 | 0.57 | 0.29 | 85 | 1005.9 |
| 20260509160405 | 58 | 242 | 1.7 | 7.8 | 0.00 | 0.57 | 0.29 | 84 | 1005.8 |
| 20260509155905 | 58 | 270 | 0.0 | 2.6 | 0.00 | 0.57 | 0.29 | 85 | 1005.7 |
| 20260509155405 | 58 | 259 | 0.9 | 5.2 | 0.00 | 0.57 | 0.29 | 86 | 1005.7 |
| 20260509154905 | 58 | 225 | 0.0 | 4.3 | 0.00 | 0.57 | 0.29 | 86 | 1005.8 |
| 20260509154405 | 58 | 225 | 0.9 | 7.8 | 0.00 | 0.57 | 0.29 | 87 | 1005.7 |
| 20260509153904 | 58 | 168 | 0.9 | 5.2 | 0.00 | 0.57 | 0.29 | 87 | 1005.7 |
| 20260509152905 | 57 | 250 | 0.9 | 7.0 | 0.00 | 0.57 | 0.29 | 88 | 1005.7 |
| 20260509152404 | 57 | 274 | 0.0 | 7.0 | 0.00 | 0.57 | 0.29 | 89 | 1005.8 |
| 20260509151905 | 57 | 266 | 2.6 | 10.4 | 0.00 | 0.57 | 0.29 | 90 | 1005.7 |
| 20260509151405 | 56 | 231 | 0.0 | 0.9 | 0.00 | 0.57 | 0.29 | 92 | 1005.8 |
| 20260509145904 | 55 | 263 | 0.0 | 7.8 | 0.00 | 0.57 | 0.29 | 91 | 1005.9 |
| 20260509145404 | 55 | 265 | 1.7 | 5.2 | 0.00 | 0.57 | 0.29 | 91 | 1006.0 |
| 20260509144405 | 55 | 250 | 0.0 | 0.0 | 0.00 | 0.57 | 0.29 | 92 | 1005.9 |
| 20260509143905 | 55 | 268 | 0.9 | 2.6 | 0.00 | 0.57 | 0.29 | 93 | 1005.9 |
| 20260509143405 | 55 | 219 | 0.0 | 5.2 | 0.00 | 0.57 | 0.29 | 94 | 1005.9 |
| 20260509142905 | 55 | 186 | 0.0 | 0.9 | 0.00 | 0.57 | 0.29 | 94 | 1005.8 |
| 20260509142405 | 55 | 186 | 0.9 | 4.3 | 0.00 | 0.57 | 0.29 | 94 | 1005.8 |
| 20260509141905 | 54 | 186 | 0.0 | 0.9 | 0.00 | 0.57 | 0.29 | 95 | 1005.7 |
| 20260509141405 | 54 | 151 | 0.9 | 5.2 | 0.00 | 0.57 | 0.29 | 95 | 1005.7 |
| 20260509140905 | 54 | 269 | 2.6 | 7.8 | 0.00 | 0.57 | 0.29 | 95 | 1005.8 |
| 20260509140405 | 54 | 248 | 0.0 | 0.0 | 0.00 | 0.57 | 0.29 | 95 | 1005.8 |
| 20260509135905 | 54 | 248 | 0.0 | 2.6 | 0.00 | 0.57 | 0.29 | 95 | 1005.9 |
| 20260509134905 | 53 | 243 | 0.0 | 0.0 | 0.00 | 0.57 | 0.29 | 95 | 1005.8 |
| 20260509134405 | 53 | 243 | 0.0 | 0.0 | 0.00 | 0.57 | 0.29 | 95 | 1005.9 |
| 20260509133905 | 53 | 258 | 0.9 | 2.6 | 0.00 | 0.57 | 0.29 | 95 | 1005.9 |
| 20260509132905 | 53 | 200 | 0.0 | 0.0 | 0.00 | 0.60 | 0.29 | 95 | 1006.0 |
| 20260509132405 | 52 | 200 | 0.0 | 0.0 | 0.00 | 0.60 | 0.29 | 95 | 1006.1 |
| 20260509131405 | 52 | 199 | 0.0 | 4.3 | 0.00 | 0.60 | 0.29 | 95 | 1006.2 |
| 20260509130904 | 52 | 199 | 0.0 | 0.0 | 0.00 | 0.60 | 0.29 | 95 | 1006.2 |
| 20260509130405 | 52 | 199 | 0.0 | 0.0 | 0.00 | 0.60 | 0.29 | 95 | 1006.2 |
| 20260509125905 | 52 | 199 | 0.0 | 0.0 | 0.01 | 0.60 | 0.29 | 95 | 1006.3 |
| 20260509125405 | 52 | 199 | 0.0 | 0.0 | 0.01 | 0.60 | 0.29 | 95 | 1006.3 |
| 20260509124904 | 52 | 199 | 0.0 | 0.0 | 0.01 | 0.60 | 0.29 | 95 | 1006.2 |
| 20260509124404 | 52 | 199 | 0.0 | 0.0 | 0.01 | 0.60 | 0.29 | 95 | 1006.2 |
| 20260509123905 | 52 | 199 | 0.0 | 0.0 | 0.01 | 0.60 | 0.29 | 95 | 1006.4 |
| 20260509123404 | 52 | 199 | 0.0 | 0.0 | 0.01 | 0.60 | 0.29 | 95 | 1006.4 |
| 20260509122905 | 52 | 199 | 0.0 | 0.0 | 0.01 | 0.60 | 0.29 | 95 | 1006.3 |
| 20260509122405 | 52 | 199 | 0.0 | 0.0 | 0.01 | 0.60 | 0.29 | 95 | 1006.4 |
| 20260509121904 | 52 | 199 | 0.0 | 0.0 | 0.01 | 0.60 | 0.29 | 95 | 1006.4 |
| 20260509120905 | 51 | 199 | 0.0 | 0.0 | 0.01 | 0.60 | 0.29 | 95 | 1006.5 |
| 20260509120405 | 51 | 199 | 0.0 | 0.0 | 0.01 | 0.60 | 0.29 | 95 | 1006.5 |
| 20260509114905 | 51 | 198 | 0.0 | 0.0 | 0.00 | 0.59 | 0.28 | 95 | 1006.5 |
| 20260509114404 | 51 | 198 | 0.0 | 0.0 | 0.00 | 0.59 | 0.28 | 95 | 1006.5 |
| 20260509113905 | 51 | 198 | 0.0 | 0.0 | 0.00 | 0.59 | 0.28 | 95 | 1006.5 |
| 20260509113404 | 51 | 198 | 0.0 | 0.0 | 0.00 | 0.59 | 0.28 | 95 | 1006.4 |
| 20260509112905 | 51 | 198 | 0.0 | 0.0 | 0.00 | 0.59 | 0.28 | 95 | 1006.4 |
| 20260509112404 | 51 | 198 | 0.0 | 0.0 | 0.00 | 0.59 | 0.28 | 95 | 1006.4 |
| 20260509111905 | 51 | 198 | 0.0 | 0.0 | 0.00 | 0.59 | 0.28 | 95 | 1006.3 |
| 20260509111405 | 51 | 198 | 0.0 | 0.0 | 0.00 | 0.61 | 0.28 | 95 | 1006.2 |
| 20260509110904 | 51 | 198 | 0.0 | 0.0 | 0.00 | 0.61 | 0.28 | 95 | 1006.2 |
| 20260509110405 | 51 | 198 | 0.0 | 0.0 | 0.00 | 0.61 | 0.28 | 95 | 1006.2 |
| 20260509105404 | 51 | 199 | 0.0 | 0.0 | 0.01 | 0.61 | 0.28 | 95 | 1006.1 |
| 20260509104405 | 51 | 199 | 0.0 | 0.0 | 0.01 | 0.61 | 0.28 | 95 | 1006.1 |
| 20260509103905 | 51 | 199 | 0.0 | 0.0 | 0.01 | 0.61 | 0.28 | 95 | 1006.1 |
| 20260509103405 | 51 | 199 | 0.0 | 0.0 | 0.01 | 0.61 | 0.28 | 95 | 1006.2 |
| 20260509102904 | 51 | 199 | 0.0 | 0.0 | 0.02 | 0.61 | 0.28 | 95 | 1006.2 |
| 20260509102405 | 51 | 199 | 0.0 | 0.0 | 0.02 | 0.61 | 0.28 | 95 | 1006.3 |
| 20260509101904 | 51 | 199 | 0.0 | 0.0 | 0.02 | 0.61 | 0.28 | 95 | 1006.3 |
| 20260509101405 | 51 | 199 | 0.0 | 0.0 | 0.02 | 0.61 | 0.28 | 95 | 1006.3 |
| 20260509100404 | 51 | 199 | 0.0 | 0.0 | 0.02 | 0.61 | 0.28 | 95 | 1006.4 |
| 20260509095905 | 51 | 199 | 0.0 | 0.0 | 0.02 | 0.61 | 0.28 | 95 | 1006.3 |
| 20260509095405 | 51 | 199 | 0.0 | 0.0 | 0.01 | 0.60 | 0.27 | 95 | 1006.3 |
| 20260509094904 | 51 | 199 | 0.0 | 0.0 | 0.01 | 0.60 | 0.27 | 95 | 1006.4 |
| 20260509094404 | 50 | 199 | 0.0 | 0.0 | 0.01 | 0.60 | 0.27 | 95 | 1006.5 |
| 20260509093905 | 51 | 187 | 0.0 | 0.0 | 0.02 | 0.60 | 0.27 | 95 | 1006.4 |
| 20260509093405 | 50 | 187 | 0.0 | 0.0 | 0.03 | 0.60 | 0.27 | 95 | 1006.5 |
| 20260509092905 | 50 | 187 | 0.0 | 0.0 | 0.02 | 0.59 | 0.26 | 94 | 1006.6 |
| 20260509092404 | 50 | 187 | 0.0 | 0.0 | 0.03 | 0.59 | 0.26 | 94 | 1006.7 |
| 20260509091405 | 50 | 187 | 0.0 | 0.0 | 0.05 | 0.59 | 0.26 | 94 | 1006.7 |
| 20260509090904 | 50 | 187 | 0.0 | 0.0 | 0.06 | 0.59 | 0.26 | 95 | 1006.8 |
| 20260509090404 | 50 | 187 | 0.0 | 0.0 | 0.06 | 0.59 | 0.26 | 94 | 1006.7 |
| 20260509085905 | 50 | 187 | 0.0 | 0.0 | 0.06 | 0.59 | 0.26 | 94 | 1006.7 |
| 20260509085406 | 50 | 186 | 0.9 | 4.3 | 0.06 | 0.59 | 0.26 | 95 | 1006.8 |
| 20260509084905 | 50 | 204 | 0.0 | 0.0 | 0.07 | 0.59 | 0.26 | 95 | 1006.9 |
| 20260509084405 | 50 | 204 | 0.0 | 0.0 | 0.08 | 0.59 | 0.26 | 95 | 1006.8 |
| 20260509083904 | 50 | 204 | 0.0 | 0.0 | 0.08 | 0.58 | 0.25 | 95 | 1006.8 |
| 20260509083405 | 50 | 204 | 0.9 | 4.3 | 0.07 | 0.57 | 0.24 | 94 | 1006.9 |
| 20260509082904 | 50 | 181 | 0.0 | 0.0 | 0.07 | 0.57 | 0.24 | 94 | 1006.9 |
| 20260509082405 | 50 | 181 | 0.0 | 0.0 | 0.06 | 0.56 | 0.23 | 95 | 1006.9 |
| 20260509081905 | 50 | 180 | 0.0 | 0.0 | 0.06 | 0.55 | 0.22 | 95 | 1006.9 |
| 20260509081404 | 50 | 180 | 0.0 | 0.0 | 0.06 | 0.54 | 0.21 | 95 | 1006.9 |
| 20260509080404 | 50 | 180 | 0.0 | 0.0 | 0.06 | 0.53 | 0.20 | 95 | 1006.8 |
| 20260509075905 | 50 | 180 | 0.0 | 0.0 | 0.06 | 0.53 | 0.20 | 95 | 1006.9 |
| 20260509075405 | 50 | 181 | 0.0 | 0.0 | 0.06 | 0.53 | 0.20 | 94 | 1006.9 |
| 20260509074904 | 50 | 180 | 0.0 | 4.3 | 0.05 | 0.52 | 0.19 | 94 | 1006.9 |
| 20260509074405 | 50 | 257 | 0.0 | 2.6 | 0.05 | 0.51 | 0.18 | 94 | 1007.0 |
| 20260509073905 | 50 | 287 | 0.0 | 4.3 | 0.04 | 0.50 | 0.17 | 94 | 1007.1 |
| 20260509073405 | 50 | 178 | 0.0 | 2.6 | 0.04 | 0.50 | 0.17 | 94 | 1006.9 |
| 20260509072905 | 50 | 178 | 0.0 | 0.0 | 0.04 | 0.50 | 0.17 | 94 | 1007.0 |
| 20260509072404 | 50 | 178 | 0.0 | 0.0 | 0.05 | 0.50 | 0.17 | 94 | 1007.0 |
| 20260509071905 | 50 | 178 | 0.0 | 0.0 | 0.04 | 0.49 | 0.16 | 94 | 1007.1 |
| 20260509071405 | 50 | 178 | 0.0 | 0.0 | 0.03 | 0.48 | 0.15 | 94 | 1007.1 |
| 20260509070904 | 49 | 178 | 0.0 | 0.0 | 0.04 | 0.48 | 0.15 | 94 | 1007.1 |
| 20260509070404 | 50 | 178 | 0.0 | 0.0 | 0.03 | 0.47 | 0.14 | 94 | 1007.0 |
| 20260509065905 | 50 | 178 | 0.0 | 0.0 | 0.04 | 0.47 | 0.14 | 94 | 1007.1 |
| 20260509064904 | 49 | 178 | 0.0 | 0.0 | 0.05 | 0.47 | 0.14 | 94 | 1007.2 |
| 20260509064405 | 49 | 178 | 0.0 | 0.0 | 0.04 | 0.46 | 0.13 | 94 | 1007.1 |
| 20260509063905 | 50 | 178 | 0.0 | 0.0 | 0.05 | 0.46 | 0.13 | 94 | 1007.1 |
| 20260509063405 | 50 | 178 | 0.0 | 0.0 | 0.06 | 0.46 | 0.13 | 94 | 1007.2 |
| 20260509062904 | 50 | 178 | 0.0 | 0.0 | 0.07 | 0.46 | 0.13 | 94 | 1007.3 |
| 20260509062405 | 50 | 178 | 0.0 | 0.0 | 0.07 | 0.45 | 0.12 | 94 | 1007.3 |
| 20260509061904 | 50 | 178 | 0.0 | 0.0 | 0.07 | 0.45 | 0.12 | 94 | 1007.4 |
| 20260509061405 | 50 | 178 | 0.0 | 0.0 | 0.08 | 0.45 | 0.12 | 94 | 1007.4 |
| 20260509060904 | 50 | 178 | 0.0 | 0.0 | 0.07 | 0.44 | 0.11 | 94 | 1007.5 |
| 20260509060405 | 50 | 178 | 0.0 | 0.0 | 0.08 | 0.44 | 0.11 | 94 | 1007.7 |
| 20260509055904 | 50 | 178 | 0.0 | 0.0 | 0.07 | 0.43 | 0.10 | 94 | 1007.8 |
| 20260509055405 | 50 | 178 | 0.0 | 0.0 | 0.06 | 0.42 | 0.09 | 94 | 1007.8 |